Location: 433rd Scouts Home(Lloyd Manor Park, Etobicoke )
(43.6722°N, 79.5542°W)
Time: 20:04:27
(UTC-04:00)

Nauka - Pass Details

Date: 03 October 2021
Orbit: 418 x 423 km, 51.6° (Epoch: 18 October)

Event Time Altitude Azimuth Distance (km) Brightness Sun altitude
Rises 20:31:04 0° 299° (WNW) 2,365 ? -18.1°
Reaches altitude 10° 20:33:12 10° 295° (WNW) 1,499 ? -18.5°
Maximum altitude 20:36:29 53° 218° (SW) 521 ? -19.1°
Enters shadow 20:37:05 45° 177° (S) 580 ? -19.2°
